Pompano Beach, FL

3:38 AM EDT on July 22, 2017 (GMT -0400)
Pompano Beach

Weather History for KPMP - November, 2013

Change the Weather History Date:

Sunday, November 3, 2013

  Actual Average Record
Temperature  
Mean Temperature 76 °F -  
Max Temperature 84 °F 84 °F 92 °F (1973)
Min Temperature 69 °F 68 °F 52 °F (1954)
Cooling Degree Days 10    
Growing Degree Days 26 (Base 50)    
Moisture  
Dew Point 61 °F    
Average Humidity 61    
Maximum Humidity 78    
Minimum Humidity 45    
Precipitation  
Precipitation 0.00 in - - ()
Sea Level Pressure  
Sea Level Pressure 29.96 in    
Wind  
Wind Speed 13 mph (North)    
Max Wind Speed 18 mph    
Max Gust Speed 26 mph    
Visibility 10 miles    
Events      
Averages and records for this station are not official NWS values.
T = Trace of Precipitation, MM = Missing Value Source: NWS Daily Summary

Daily Weather History Graph

Daily Weather History Graph

Search for Another Location

Airport or City:

Trip Planner

Search our weather history database for the weather conditions in past years. The results will help you decide how hot, cold, wet, or windy it might be!

Date:

Astronomy

Nov. 03, 2013 Rise Set
Actual Time 6:30 AM EST 5:36 PM EST
Civil Twilight 6:06 AM EST 6:00 PM EST
Nautical Twilight 5:39 AM EST 6:28 PM EST
Astronomical Twilight 5:12 AM EST 6:55 PM EST
Moon 6:31 AM EST (11/3) 5:53 PM EST (11/3)
Length of Visible Light 11h 53m
Length of Day
11h 05m
New Moon, 0% of the Moon is Illuminated
Nov 3
New Moon
Nov 10
First Quarter
Nov 17
Full
Nov 25
Last Quarter
Dec 2
New

Hourly Weather History & Observations

Time (EST) Temp. Heat Index Dew Point Humidity Pressure Visibility Wind Dir Wind Speed Gust Speed Precip Events Conditions
12:53 AM 72.0 °F - 60.1 °F 66% 29.93 in 10.0 mi NW 15.0 mph - N/A   Unknown
1:53 AM 72.0 °F - 62.1 °F 71% 29.91 in 10.0 mi North 5.8 mph - N/A   Unknown
1:53 AM 71.1 °F - 63.0 °F 75% 29.91 in 10.0 mi NW 11.5 mph - N/A   Overcast
2:53 AM 71.1 °F - 63.0 °F 75% 29.91 in 10.0 mi NNW 6.9 mph - N/A   Unknown
3:53 AM 70.0 °F - 63.0 °F 78% 29.91 in 10.0 mi NW 9.2 mph - N/A   Unknown
4:53 AM 70.0 °F - 62.1 °F 76% 29.92 in 10.0 mi NNW 10.4 mph - N/A   Unknown
5:53 AM 69.1 °F - 61.0 °F 75% 29.93 in 10.0 mi NW 12.7 mph - N/A   Unknown
6:53 AM 70.0 °F - 60.1 °F 71% 29.95 in 10.0 mi NNW 10.4 mph - N/A   Unknown
7:53 AM 72.0 °F - 60.1 °F 66% 29.96 in 10.0 mi North 11.5 mph - N/A   Scattered Clouds
8:53 AM 75.0 °F - 60.1 °F 60% 29.99 in 10.0 mi NNW 11.5 mph - N/A   Partly Cloudy
9:53 AM 77.0 °F - 61.0 °F 58% 30.01 in 10.0 mi North 17.3 mph - N/A   Partly Cloudy
10:53 AM 82.0 °F 83.1 °F 63.0 °F 52% 29.99 in 10.0 mi North 17.3 mph 21.9 mph N/A   Partly Cloudy
11:53 AM 82.0 °F 82.7 °F 61.0 °F 49% 29.99 in 10.0 mi NE 16.1 mph 26.5 mph N/A   Mostly Cloudy
12:53 PM 82.0 °F 82.4 °F 60.1 °F 47% 29.97 in 10.0 mi NE 16.1 mph 23.0 mph N/A   Mostly Cloudy
1:53 PM 81.0 °F 81.7 °F 61.0 °F 50% 29.95 in 10.0 mi NNE 16.1 mph 25.3 mph N/A   Mostly Cloudy
2:53 PM 81.0 °F 81.6 °F 60.1 °F 49% 29.95 in 10.0 mi NNE 17.3 mph - N/A   Mostly Cloudy
3:53 PM 82.0 °F 82.1 °F 59.0 °F 45% 29.95 in 10.0 mi NNE 13.8 mph 23.0 mph N/A   Mostly Cloudy
4:53 PM 79.0 °F - 60.1 °F 52% 29.96 in 10.0 mi North 15.0 mph 23.0 mph N/A   Mostly Cloudy
5:53 PM 77.0 °F - 59.0 °F 54% 29.97 in 10.0 mi North 9.2 mph - N/A   Scattered Clouds
6:53 PM 78.1 °F - 60.1 °F 54% 29.99 in 10.0 mi NNE 18.4 mph 24.2 mph N/A   Overcast
7:53 PM 78.1 °F - 61.0 °F 56% 30.01 in 10.0 mi NE 13.8 mph 25.3 mph N/A   Unknown
8:53 PM 77.0 °F - 62.1 °F 60% 30.02 in 10.0 mi NE 17.3 mph 25.3 mph N/A   Unknown
9:53 PM 78.1 °F - 61.0 °F 56% 30.04 in 10.0 mi NE 18.4 mph 24.2 mph N/A   Overcast
10:53 PM 77.0 °F - 61.0 °F 58% 30.03 in 10.0 mi ENE 18.4 mph 26.5 mph N/A   Overcast